| time (UTC) | temp F | wind direction | speed knots | gust knots | rain 1hr in | rain 24hr in | rain mn in | humidity % | barometer mb |
| 20260901184540 | 97 | 221 | 5.2 | 9.6 | 0.00 | 0.00 | 0.00 | 45 | 1015.9 |
| 20260901183046 | 97 | 172 | 1.7 | 8.7 | 0.00 | 0.00 | 0.00 | 44 | 1016.2 |
| 20260901181535 | 97 | 240 | 3.5 | 8.7 | 0.00 | 0.00 | 0.00 | 44 | 1016.5 |
| 20260901180033 | 97 | 309 | 4.3 | 8.7 | 0.00 | 0.00 | 0.00 | 43 | 1016.7 |
| 20260901174541 | 97 | 348 | 0.9 | 9.6 | 0.00 | 0.00 | 0.00 | 45 | 1017.1 |
| 20260901173045 | 96 | 336 | 0.9 | 6.1 | 0.00 | 0.00 | 0.00 | 47 | 1017.3 |
| 20260901171535 | 96 | 228 | 3.5 | 10.4 | 0.00 | 0.00 | 0.00 | 48 | 1017.5 |
| 20260901170043 | 94 | 284 | 3.5 | 7.8 | 0.00 | 0.00 | 0.00 | 51 | 1017.5 |
| 20260901164541 | 93 | 339 | 3.5 | 7.8 | 0.00 | 0.00 | 0.00 | 49 | 1017.7 |
| 20260901163036 | 94 | 288 | 3.5 | 7.8 | 0.00 | 0.00 | 0.00 | 51 | 1017.8 |
| 20260901161549 | 94 | 346 | 1.7 | 7.0 | 0.00 | 0.00 | 0.00 | 51 | 1017.7 |
| 20260901160035 | 94 | 355 | 2.6 | 6.1 | 0.00 | 0.00 | 0.00 | 51 | 1017.7 |
| 20260901154537 | 93 | 360 | 1.7 | 5.2 | 0.00 | 0.00 | 0.00 | 53 | 1017.8 |
| 20260901153045 | 92 | 327 | 0.9 | 5.2 | 0.00 | 0.00 | 0.00 | 55 | 1017.8 |
| 20260901151539 | 91 | 355 | 1.7 | 4.3 | 0.00 | 0.00 | 0.00 | 56 | 1017.7 |
| 20260901150041 | 89 | 327 | 0.9 | 5.2 | 0.00 | 0.00 | 0.00 | 59 | 1017.7 |
| 20260901144545 | 89 | 5 | 0.9 | 4.3 | 0.00 | 0.00 | 0.00 | 60 | 1017.9 |
| 20260901143045 | 88 | 350 | 0.9 | 4.3 | 0.00 | 0.00 | 0.00 | 62 | 1017.9 |
| 20260901141546 | 86 | 5 | 0.9 | 3.5 | 0.00 | 0.00 | 0.00 | 65 | 1017.9 |
| 20260901140038 | 85 | 355 | 0.9 | 3.5 | 0.00 | 0.00 | 0.00 | 67 | 1017.9 |
| 20260901134540 | 84 | 279 | 0.9 | 4.3 | 0.00 | 0.00 | 0.00 | 68 | 1018.0 |
| 20260901133035 | 83 | 0 | 0.9 | 3.5 | 0.00 | 0.00 | 0.00 | 69 | 1017.9 |
| 20260901131538 | 82 | 288 | 1.7 | 4.3 | 0.00 | 0.00 | 0.00 | 71 | 1017.9 |
| 20260901130036 | 81 | 0 | 0.9 | 2.6 | 0.00 | 0.00 | 0.00 | 72 | 1017.8 |
| 20260901124540 | 80 | 322 | 0.0 | 2.6 | 0.00 | 0.00 | 0.00 | 73 | 1017.5 |
| 20260901123034 | 79 | 298 | 0.0 | 2.6 | 0.00 | 0.00 | 0.00 | 73 | 1017.3 |
| 20260901121536 | 79 | 0 | 0.0 | 0.0 | 0.00 | 0.00 | 0.00 | 72 | 1017.1 |
| 20260901120038 | 79 | 0 | 0.0 | 0.9 | 0.00 | 0.00 | 0.00 | 71 | 1016.7 |
| 20260901114543 | 79 | 0 | 0.0 | 2.6 | 0.00 | 0.00 | 0.00 | 71 | 1016.7 |
| 20260901113036 | 79 | 0 | 0.0 | 2.6 | 0.00 | 0.00 | 0.00 | 71 | 1016.6 |
| 20260901111538 | 80 | 294 | 0.9 | 3.5 | 0.00 | 0.00 | 0.00 | 70 | 1016.5 |
| 20260901110034 | 80 | 0 | 0.9 | 1.7 | 0.00 | 0.00 | 0.00 | 70 | 1016.4 |
| 20260901104533 | 80 | 0 | 0.0 | 0.0 | 0.00 | 0.00 | 0.00 | 70 | 1016.3 |
| 20260901103034 | 80 | 0 | 0.0 | 0.0 | 0.00 | 0.00 | 0.00 | 69 | 1016.4 |
| 20260901101535 | 80 | 0 | 0.0 | 1.7 | 0.00 | 0.00 | 0.00 | 68 | 1016.4 |
| 20260901100034 | 81 | 0 | 0.0 | 1.7 | 0.00 | 0.00 | 0.00 | 67 | 1016.5 |
| 20260901094538 | 81 | 0 | 0.0 | 0.0 | 0.00 | 0.00 | 0.00 | 66 | 1016.5 |
| 20260901093038 | 82 | 0 | 0.0 | 0.0 | 0.00 | 0.00 | 0.00 | 65 | 1016.6 |
| 20260901091536 | 82 | 0 | 0.0 | 0.9 | 0.00 | 0.00 | 0.00 | 64 | 1016.6 |
| 20260901090038 | 83 | 288 | 0.0 | 1.7 | 0.00 | 0.00 | 0.00 | 63 | 1016.4 |
| 20260901084540 | 83 | 0 | 0.0 | 2.6 | 0.00 | 0.00 | 0.00 | 62 | 1016.3 |
| 20260901083038 | 83 | 0 | 0.0 | 2.6 | 0.00 | 0.00 | 0.00 | 61 | 1016.2 |
| 20260901081536 | 83 | 294 | 0.9 | 3.5 | 0.00 | 0.00 | 0.00 | 60 | 1016.1 |
| 20260901080038 | 84 | 329 | 0.9 | 2.6 | 0.00 | 0.00 | 0.00 | 59 | 1016.1 |
| 20260901074544 | 85 | 0 | 0.0 | 3.5 | 0.00 | 0.00 | 0.00 | 58 | 1016.1 |
| 20260901073036 | 85 | 300 | 1.7 | 3.5 | 0.00 | 0.00 | 0.00 | 56 | 1016.1 |
| 20260901071537 | 86 | 298 | 1.7 | 6.1 | 0.00 | 0.00 | 0.00 | 56 | 1016.1 |
| 20260901070044 | 86 | 281 | 3.5 | 7.8 | 0.00 | 0.00 | 0.00 | 55 | 1016.1 |
| 20260901064535 | 86 | 0 | 3.5 | 7.8 | 0.00 | 0.00 | 0.00 | 55 | 1016.0 |
| 20260901063035 | 87 | 0 | 0.9 | 5.2 | 0.00 | 0.00 | 0.00 | 55 | 1015.9 |
| 20260901061535 | 87 | 270 | 1.7 | 7.0 | 0.00 | 0.00 | 0.00 | 54 | 1015.9 |
| 20260901060037 | 88 | 277 | 2.6 | 9.6 | 0.00 | 0.00 | 0.00 | 53 | 1015.7 |
| 20260901054535 | 88 | 267 | 4.3 | 9.6 | 0.00 | 0.00 | 0.00 | 52 | 1015.5 |
| 20260901053036 | 88 | 281 | 2.6 | 10.4 | 0.00 | 0.00 | 0.00 | 51 | 1015.4 |
| 20260901051543 | 88 | 222 | 5.2 | 9.6 | 0.00 | 0.00 | 0.00 | 51 | 1015.3 |
| 20260901050035 | 88 | 270 | 3.5 | 7.8 | 0.00 | 0.00 | 0.00 | 50 | 1015.2 |
| 20260901044551 | 87 | 252 | 0.9 | 3.5 | 0.00 | 0.00 | 0.00 | 49 | 1015.2 |
| 20260901043034 | 87 | 261 | 1.7 | 5.2 | 0.00 | 0.00 | 0.00 | 48 | 1015.0 |
| 20260901041534 | 87 | 292 | 2.6 | 5.2 | 0.00 | 0.00 | 0.00 | 49 | 1015.1 |
| 20260901040042 | 87 | 0 | 0.0 | 1.7 | 0.00 | 0.00 | 0.00 | 50 | 1014.9 |
| 20260901034536 | 88 | 245 | 0.0 | 1.7 | 0.00 | 0.00 | 0.00 | 50 | 1014.9 |
| 20260901033051 | 88 | 225 | 0.9 | 2.6 | 0.00 | 0.00 | 0.00 | 48 | 1014.9 |
| 20260901031536 | 89 | 0 | 0.0 | 1.7 | 0.00 | 0.00 | 0.00 | 47 | 1014.8 |
| 20260901030037 | 90 | 223 | 0.9 | 2.6 | 0.00 | 0.00 | 0.00 | 47 | 1014.7 |
| 20260901024539 | 90 | 207 | 1.7 | 3.5 | 0.00 | 0.00 | 0.00 | 48 | 1014.5 |
| 20260901023044 | 91 | 0 | 0.0 | 0.0 | 0.00 | 0.00 | 0.00 | 46 | 1014.2 |
| 20260901021552 | 92 | 0 | 0.0 | 0.9 | 0.00 | 0.00 | 0.00 | 46 | 1014.0 |
| 20260901020038 | 93 | 242 | 0.0 | 2.6 | 0.00 | 0.00 | 0.00 | 46 | 1014.0 |
| 20260901014538 | 94 | 275 | 0.0 | 2.6 | 0.00 | 0.00 | 0.00 | 42 | 1013.8 |
| 20260901013046 | 95 | 275 | 0.9 | 3.5 | 0.00 | 0.00 | 0.00 | 38 | 1013.9 |
| 20260901011558 | 95 | 277 | 0.9 | 3.5 | 0.00 | 0.00 | 0.00 | 37 | 1013.9 |
| 20260901010035 | 96 | 278 | 1.7 | 6.1 | 0.00 | 0.00 | 0.00 | 37 | 1013.6 |
| 20260901004538 | 97 | 330 | 1.7 | 7.8 | 0.00 | 0.00 | 0.00 | 37 | 1013.6 |
| 20260901003047 | 97 | 280 | 2.6 | 8.7 | 0.00 | 0.00 | 0.00 | 35 | 1013.6 |
| 20260901001536 | 98 | 249 | 3.5 | 7.0 | 0.00 | 0.00 | 0.00 | 35 | 1013.5 |
| 20260901000035 | 98 | 285 | 3.5 | 8.7 | 0.00 | 0.00 | 0.00 | 34 | 1013.5 |
| 20260831234536 | 99 | 234 | 4.3 | 8.7 | 0.00 | 0.00 | 0.00 | 34 | 1013.6 |
| 20260831233036 | 100 | 283 | 6.1 | 9.6 | 0.00 | 0.00 | 0.00 | 33 | 1013.6 |
| 20260831231537 | 98 | 5 | 2.6 | 10.4 | 0.00 | 0.00 | 0.00 | 32 | 1013.5 |
| 20260831230036 | 99 | 314 | 3.5 | 8.7 | 0.00 | 0.00 | 0.00 | 32 | 1013.5 |
| 20260831224536 | 99 | 355 | 3.5 | 7.0 | 0.00 | 0.00 | 0.00 | 31 | 1013.6 |
| 20260831223038 | 99 | 0 | 2.6 | 7.8 | 0.00 | 0.00 | 0.00 | 32 | 1013.8 |
| 20260831221547 | 100 | 284 | 3.5 | 7.8 | 0.00 | 0.00 | 0.00 | 31 | 1013.9 |
| 20260831220033 | 99 | 304 | 3.5 | 7.8 | 0.00 | 0.00 | 0.00 | 31 | 1013.9 |
| 20260831214534 | 100 | 355 | 4.3 | 8.7 | 0.00 | 0.00 | 0.00 | 32 | 1014.1 |
| 20260831213039 | 99 | 320 | 1.7 | 8.7 | 0.00 | 0.00 | 0.00 | 33 | 1014.2 |
| 20260831211542 | 99 | 290 | 4.3 | 8.7 | 0.00 | 0.00 | 0.00 | 33 | 1014.4 |
| 20260831210034 | 99 | 337 | 3.5 | 9.6 | 0.00 | 0.00 | 0.00 | 33 | 1014.5 |
| 20260831204538 | 99 | 352 | 3.5 | 10.4 | 0.00 | 0.00 | 0.00 | 33 | 1014.9 |
| 20260831203043 | 99 | 360 | 4.3 | 8.7 | 0.00 | 0.00 | 0.00 | 32 | 1015.1 |
| 20260831201544 | 99 | 25 | 5.2 | 12.2 | 0.00 | 0.00 | 0.00 | 32 | 1015.2 |
| 20260831200034 | 99 | 260 | 2.6 | 10.4 | 0.00 | 0.00 | 0.00 | 33 | 1015.4 |
| 20260831194538 | 99 | 311 | 5.2 | 10.4 | 0.00 | 0.00 | 0.00 | 35 | 1015.7 |
| 20260831193032 | 101 | 304 | 1.7 | 12.2 | 0.00 | 0.00 | 0.00 | 36 | 1016.0 |
| 20260831191536 | 98 | 319 | 3.5 | 10.4 | 0.00 | 0.00 | 0.00 | 38 | 1016.0 |
| 20260831190042 | 97 | 331 | 2.6 | 12.2 | 0.00 | 0.00 | 0.00 | 38 | 1016.2 |